Location: Mannheim
(49.4880°N, 8.4650°E)
Time: 00:23:29
(UTC+02:00)

ISS - Pass Details

Date: 15 May 2022
Orbit: 414 x 421 km, 51.6° (Epoch: 22 May)

Event Time Altitude Azimuth Distance (km) Brightness Sun altitude
Rises 00:05:09 0° 257° (WSW) 2,354 0.1 -19.6°
Reaches altitude 10° 00:07:15 10° 259° (W) 1,491 -0.9 -19.7°
Maximum altitude 00:10:36 75° 345° (NNW) 435 -3.7 -19.9°
Drops below altitude 10° 00:13:57 10° 72° (ENE) 1,492 -1.0 -20.0°
Sets 00:16:03 0° 74° (ENE) 2,356 0.0 -20.1°
